Location: Northam
(31.6525°S, 116.6655°E)
Time: 19:30:27
(UTC+08:00)

Courier 1B Rocket - Visible Passes

Search period start: 13 June 2021 00:00
Search period end: 23 June 2021 00:00
Orbit: 920 x 1202 km, 28.2° (Epoch: 12 June)

Date Brightness Start Highest point End Pass type
(mag) Time Alt. Az. Time Alt. Az. Time Alt. Az.
13 Jun 8.1 06:38:38 10° NNE 06:41:16 12° NNE 06:43:56 10° NE visible
15 Jun 7.7 06:27:24 10° N 06:32:08 18° NNE 06:37:03 10° ENE visible
16 Jun 7.9 05:29:00 10° NNE 05:31:13 11° NE 05:33:28 10° NE visible
17 Jun 7.3 06:17:19 10° NNW 06:23:02 26° NNE 06:29:02 10° E visible
18 Jun 7.5 05:17:41 10° N 05:22:07 18° NNE 05:26:44 10° ENE visible
19 Jun 7.7 04:19:37 10° NNE 04:21:15 11° NE 04:22:54 10° NE visible
19 Jun 6.8 06:07:46 10° NW 06:13:59 34° NNE 06:20:37 10° E visible
20 Jun 7.0 05:07:38 10° NNW 05:13:02 25° NNE 05:18:45 10° E visible
21 Jun 7.2 04:10:16 15° N 04:12:10 17° NNE 04:16:26 10° ENE visible
21 Jun 6.2 05:58:32 10° NW 06:05:00 43° NNE 06:11:58 10° E visible
22 Jun 6.5 05:00:06 19° NNW 05:04:01 33° NNE 05:10:20 10° E visible
